| time (UTC) | temp F | wind direction | speed MPH | gust MPH | rain 1hr in | rain 24hr in | rain mn in | humidity % | barometer mb |
| 20260508014509 | 56 | 183 | 3.0 | 4.0 | 0.00 | 0.00 | 0.00 | 1 | 984.2 |
| 20260508013508 | 58 | 227 | 2.0 | 4.0 | 0.00 | 0.00 | 0.00 | 1 | 984.2 |
| 20260508013008 | 56 | 345 | 5.0 | 7.0 | 0.00 | 0.00 | 0.00 | 1 | 984.1 |
| 20260508012507 | 58 | 306 | 7.0 | 13.0 | 0.00 | 0.00 | 0.00 | 1 | 983.7 |
| 20260508012006 | 57 | 311 | 3.0 | 5.0 | 0.00 | 0.00 | 0.00 | 1 | 983.4 |
| 20260508011506 | 59 | 337 | 2.0 | 5.0 | 0.00 | 0.00 | 0.00 | 1 | 983.9 |
| 20260508011005 | 58 | 94 | 2.0 | 4.0 | 0.00 | 0.00 | 0.00 | 1 | 983.8 |
| 20260508010505 | 56 | 320 | 8.0 | 13.0 | 0.00 | 0.00 | 0.00 | 1 | 983.4 |
| 20260508010004 | 59 | 286 | 2.0 | 3.0 | 0.00 | 0.00 | 0.00 | 1 | 984.0 |
| 20260508005504 | 61 | 4 | 3.0 | 5.0 | 0.00 | 0.00 | 0.00 | 1 | 983.7 |
| 20260508005009 | 62 | 298 | 2.0 | 6.0 | 0.00 | 0.00 | 0.00 | 1 | 983.5 |
| 20260508004508 | 65 | 354 | 1.0 | 2.0 | 0.00 | 0.00 | 0.00 | 1 | 984.2 |
| 20260508004008 | 63 | 97 | 1.0 | 2.0 | 0.00 | 0.00 | 0.00 | 1 | 983.6 |
| 20260508003507 | 60 | 3 | 1.0 | 2.0 | 0.00 | 0.00 | 0.00 | 1 | 983.8 |
| 20260508003006 | 57 | 350 | 5.0 | 5.0 | 0.00 | 0.00 | 0.00 | 1 | 984.3 |
| 20260508002506 | 58 | 302 | 6.0 | 9.0 | 0.00 | 0.00 | 0.00 | 1 | 984.1 |
| 20260508002005 | 58 | 316 | 9.0 | 13.0 | 0.00 | 0.00 | 0.00 | 1 | 983.6 |
| 20260508001504 | 60 | 101 | 2.0 | 4.0 | 0.00 | 0.00 | 0.00 | 1 | 983.9 |
| 20260508001004 | 63 | 330 | 5.0 | 7.0 | 0.00 | 0.00 | 0.00 | 1 | 983.7 |
| 20260508000503 | 63 | 325 | 5.0 | 7.0 | 0.00 | 0.00 | 0.00 | 1 | 983.7 |
| 20260508000008 | 67 | 39 | 1.0 | 2.0 | 0.00 | 0.00 | 0.00 | 1 | 983.0 |
| 20260507235508 | 63 | 313 | 5.0 | 7.0 | 0.00 | 0.00 | 0.00 | 1 | 984.0 |
| 20260507235007 | 66 | 337 | 4.0 | 5.0 | 0.00 | 0.00 | 0.00 | 1 | 983.1 |
| 20260507234506 | 69 | 331 | 1.0 | 4.0 | 0.00 | 0.00 | 0.00 | 1 | 983.9 |
| 20260507234005 | 65 | 316 | 2.0 | 4.0 | 0.00 | 0.00 | 0.00 | 1 | 984.2 |
| 20260507233505 | 65 | 67 | 1.0 | 1.0 | 0.00 | 0.00 | 0.00 | 1 | 984.5 |
| 20260507233004 | 64 | 193 | 1.0 | 2.0 | 0.00 | 0.00 | 0.00 | 1 | 983.1 |
| 20260507232504 | 64 | 12 | 1.0 | 1.0 | 0.00 | 0.00 | 0.00 | 1 | 984.2 |
| 20260507232003 | 65 | 84 | 1.0 | 2.0 | 0.00 | 0.00 | 0.00 | 1 | 983.5 |
| 20260507231508 | 64 | 104 | 1.0 | 2.0 | 0.00 | 0.00 | 0.00 | 1 | 983.9 |
| 20260507231008 | 60 | 103 | 1.0 | 2.0 | 0.00 | 0.00 | 0.00 | 1 | 983.4 |
| 20260507230507 | 59 | 322 | 3.0 | 5.0 | 0.00 | 0.00 | 0.00 | 1 | 983.8 |
| 20260507230007 | 60 | 325 | 5.0 | 7.0 | 0.00 | 0.00 | 0.00 | 1 | 983.3 |
| 20260507225506 | 63 | 304 | 2.0 | 4.0 | 0.00 | 0.00 | 0.00 | 1 | 984.4 |
| 20260507225005 | 74 | 279 | 1.0 | 1.0 | 0.00 | 0.00 | 0.00 | 1 | 983.8 |
| 20260507224505 | 72 | 195 | 4.0 | 4.0 | 0.00 | 0.00 | 0.00 | 1 | 983.5 |
| 20260507224003 | 69 | 174 | 5.0 | 5.0 | 0.00 | 0.00 | 0.00 | 1 | 984.2 |
| 20260507223509 | 69 | 194 | 6.0 | 6.0 | 0.00 | 0.00 | 0.00 | 1 | 983.3 |
| 20260507222508 | 65 | 252 | 1.0 | 3.0 | 0.00 | 0.00 | 0.00 | 1 | 984.9 |
| 20260507222007 | 66 | 323 | 1.0 | 2.0 | 0.00 | 0.00 | 0.00 | 1 | 984.4 |
| 20260507221507 | 66 | 91 | 1.0 | 1.0 | 0.00 | 0.00 | 0.00 | 1 | 983.3 |
| 20260507221006 | 65 | 141 | 1.0 | 2.0 | 0.00 | 0.00 | 0.00 | 1 | 983.9 |
| 20260507220506 | 65 | 112 | 1.0 | 3.0 | 0.00 | 0.00 | 0.00 | 1 | 984.4 |
| 20260507220005 | 67 | 73 | 1.0 | 3.0 | 0.00 | 0.00 | 0.00 | 1 | 983.8 |
| 20260507215504 | 66 | 75 | 1.0 | 1.0 | 0.00 | 0.00 | 0.00 | 1 | 984.3 |
| 20260507215004 | 65 | 121 | 1.0 | 1.0 | 0.00 | 0.00 | 0.00 | 1 | 984.3 |
| 20260507213503 | 70 | 93 | 1.0 | 2.0 | 0.00 | 0.00 | 0.00 | 1 | 984.9 |
| 20260507213008 | 69 | 146 | 1.0 | 2.0 | 0.00 | 0.00 | 0.00 | 1 | 985.4 |
| 20260507212508 | 70 | 50 | 1.0 | 3.0 | 0.00 | 0.00 | 0.00 | 1 | 984.3 |
| 20260507211507 | 69 | 95 | 1.0 | 2.0 | 0.00 | 0.00 | 0.00 | 1 | 984.4 |
| 20260507211007 | 69 | 112 | 1.0 | 2.0 | 0.00 | 0.00 | 0.00 | 1 | 984.1 |
| 20260507210006 | 69 | 143 | 4.0 | 6.0 | 0.00 | 0.00 | 0.00 | 1 | 984.2 |
| 20260507205505 | 71 | 108 | 3.0 | 5.0 | 0.00 | 0.00 | 0.00 | 1 | 984.9 |
| 20260507205004 | 70 | 157 | 3.0 | 4.0 | 0.00 | 0.00 | 0.00 | 1 | 985.3 |
| 20260507204504 | 69 | 119 | 3.0 | 5.0 | 0.00 | 0.00 | 0.00 | 1 | 985.5 |
| 20260507204003 | 69 | 129 | 3.0 | 5.0 | 0.00 | 0.00 | 0.00 | 1 | 985.0 |
| 20260507203509 | 71 | 116 | 3.0 | 5.0 | 0.00 | 0.00 | 0.00 | 1 | 985.1 |
| 20260507203008 | 69 | 60 | 1.0 | 2.0 | 0.00 | 0.00 | 0.00 | 1 | 984.8 |
| 20260507202507 | 67 | 338 | 4.0 | 6.0 | 0.00 | 0.00 | 0.00 | 1 | 985.7 |
| 20260507202007 | 73 | 149 | 2.0 | 3.0 | 0.00 | 0.00 | 0.00 | 1 | 985.9 |
| 20260507201506 | 71 | 103 | 2.0 | 4.0 | 0.00 | 0.00 | 0.00 | 1 | 985.8 |
| 20260507201006 | 70 | 122 | 2.0 | 3.0 | 0.00 | 0.00 | 0.00 | 1 | 984.3 |
| 20260507200505 | 69 | 21 | 2.0 | 6.0 | 0.00 | 0.00 | 0.00 | 1 | 984.9 |
| 20260507200004 | 69 | 182 | 5.0 | 7.0 | 0.00 | 0.00 | 0.00 | 1 | 985.3 |
| 20260507195504 | 71 | 117 | 3.0 | 5.0 | 0.00 | 0.00 | 0.00 | 1 | 985.1 |
| 20260507195003 | 70 | 117 | 4.0 | 6.0 | 0.00 | 0.00 | 0.00 | 1 | 984.7 |
| 20260507194502 | 69 | 150 | 2.0 | 4.0 | 0.00 | 0.00 | 0.00 | 1 | 986.1 |
| 20260507194008 | 68 | 171 | 3.0 | 4.0 | 0.00 | 0.00 | 0.00 | 1 | 985.1 |
| 20260507193507 | 68 | 95 | 3.0 | 6.0 | 0.00 | 0.00 | 0.00 | 1 | 984.6 |
| 20260507193007 | 68 | 139 | 1.0 | 2.0 | 0.00 | 0.00 | 0.00 | 1 | 984.9 |
| 20260507192506 | 69 | 113 | 3.0 | 6.0 | 0.00 | 0.00 | 0.00 | 1 | 985.4 |
| 20260507192006 | 69 | 115 | 2.0 | 3.0 | 0.00 | 0.00 | 0.00 | 1 | 984.5 |
| 20260507191505 | 67 | 58 | 1.0 | 4.0 | 0.00 | 0.00 | 0.00 | 1 | 985.2 |
| 20260507191004 | 68 | 123 | 3.0 | 6.0 | 0.00 | 0.00 | 0.00 | 1 | 985.3 |
| 20260507190504 | 68 | 158 | 2.0 | 5.0 | 0.00 | 0.00 | 0.00 | 1 | 985.2 |
| 20260507190004 | 68 | 92 | 2.0 | 3.0 | 0.00 | 0.00 | 0.00 | 1 | 985.2 |
| 20260507185503 | 68 | 40 | 2.0 | 4.0 | 0.00 | 0.00 | 0.00 | 1 | 984.3 |
| 20260507185008 | 68 | 134 | 2.0 | 6.0 | 0.00 | 0.00 | 0.00 | 1 | 984.3 |
| 20260507184508 | 67 | 124 | 2.0 | 2.0 | 0.00 | 0.00 | 0.00 | 1 | 984.8 |
| 20260507184007 | 67 | 94 | 3.0 | 5.0 | 0.00 | 0.00 | 0.00 | 1 | 985.4 |
| 20260507183506 | 66 | 138 | 4.0 | 6.0 | 0.00 | 0.00 | 0.00 | 1 | 984.0 |
| 20260507183005 | 66 | 100 | 2.0 | 4.0 | 0.00 | 0.00 | 0.00 | 1 | 986.4 |
| 20260507182505 | 66 | 121 | 2.0 | 4.0 | 0.00 | 0.00 | 0.00 | 1 | 985.9 |
| 20260507182004 | 65 | 141 | 4.0 | 6.0 | 0.00 | 0.00 | 0.00 | 1 | 984.3 |
| 20260507181504 | 66 | 118 | 3.0 | 5.0 | 0.00 | 0.00 | 0.00 | 1 | 985.9 |
| 20260507181003 | 65 | 133 | 5.0 | 10.0 | 0.00 | 0.00 | 0.00 | 1 | 986.6 |
| 20260507180508 | 64 | 134 | 4.0 | 7.0 | 0.00 | 0.00 | 0.00 | 1 | 985.9 |
| 20260507180008 | 65 | 118 | 4.0 | 7.0 | 0.00 | 0.00 | 0.00 | 1 | 986.1 |
| 20260507175507 | 65 | 144 | 3.0 | 7.0 | 0.00 | 0.00 | 0.00 | 1 | 985.1 |
| 20260507175006 | 65 | 100 | 3.0 | 5.0 | 0.00 | 0.00 | 0.00 | 1 | 986.1 |
| 20260507174506 | 65 | 118 | 5.0 | 8.0 | 0.00 | 0.00 | 0.00 | 1 | 985.0 |
| 20260507174005 | 65 | 126 | 2.0 | 5.0 | 0.00 | 0.00 | 0.00 | 1 | 986.0 |
| 20260507173504 | 65 | 73 | 2.0 | 4.0 | 0.00 | 0.00 | 0.00 | 1 | 986.3 |
| 20260507173004 | 64 | 121 | 2.0 | 3.0 | 0.00 | 0.00 | 0.00 | 1 | 985.6 |
| 20260507172003 | 65 | 125 | 3.0 | 6.0 | 0.00 | 0.00 | 0.00 | 1 | 986.1 |
| 20260507171508 | 64 | 126 | 3.0 | 5.0 | 0.00 | 0.00 | 0.00 | 1 | 985.3 |
| 20260507171008 | 64 | 116 | 3.0 | 6.0 | 0.00 | 0.00 | 0.00 | 1 | 984.8 |
| 20260507170507 | 64 | 44 | 2.0 | 5.0 | 0.00 | 0.00 | 0.00 | 1 | 985.1 |
| 20260507170007 | 64 | 128 | 4.0 | 6.0 | 0.00 | 0.00 | 0.00 | 1 | 985.8 |
| 20260507165506 | 64 | 123 | 3.0 | 7.0 | 0.00 | 0.00 | 0.00 | 1 | 985.4 |
| 20260507165005 | 65 | 117 | 3.0 | 5.0 | 0.00 | 0.00 | 0.00 | 1 | 985.5 |
| 20260507164505 | 64 | 137 | 3.0 | 5.0 | 0.00 | 0.00 | 0.00 | 1 | 985.1 |
| 20260507164004 | 65 | 126 | 1.0 | 2.0 | 0.00 | 0.00 | 0.00 | 1 | 986.6 |
| 20260507163503 | 64 | 116 | 4.0 | 7.0 | 0.00 | 0.00 | 0.00 | 1 | 986.3 |
| 20260507163004 | 63 | 124 | 4.0 | 6.0 | 0.00 | 0.00 | 0.00 | 1 | 986.4 |
| 20260507162502 | 63 | 129 | 4.0 | 6.0 | 0.00 | 0.00 | 0.00 | 1 | 986.2 |
| 20260507162008 | 63 | 96 | 3.0 | 6.0 | 0.00 | 0.00 | 0.00 | 1 | 985.4 |
| 20260507161507 | 63 | 117 | 3.0 | 5.0 | 0.00 | 0.00 | 0.00 | 1 | 985.6 |
| 20260507161007 | 62 | 101 | 3.0 | 6.0 | 0.00 | 0.00 | 0.00 | 1 | 985.7 |
| 20260507160506 | 61 | 135 | 2.0 | 4.0 | 0.00 | 0.00 | 0.00 | 1 | 985.6 |
| 20260507160005 | 61 | 152 | 2.0 | 3.0 | 0.00 | 0.00 | 0.00 | 1 | 984.8 |
| 20260507155505 | 60 | 144 | 2.0 | 3.0 | 0.00 | 0.00 | 0.00 | 1 | 985.5 |
| 20260507155004 | 60 | 117 | 3.0 | 5.0 | 0.00 | 0.00 | 0.00 | 1 | 985.2 |
| 20260507154504 | 60 | 143 | 4.0 | 6.0 | 0.00 | 0.00 | 0.00 | 1 | 986.1 |
| 20260507154003 | 59 | 135 | 3.0 | 7.0 | 0.00 | 0.00 | 0.00 | 1 | 985.4 |
| 20260507153508 | 59 | 133 | 2.0 | 4.0 | 0.00 | 0.00 | 0.00 | 1 | 984.2 |
| 20260507153008 | 59 | 142 | 2.0 | 4.0 | 0.00 | 0.00 | 0.00 | 1 | 983.8 |
| 20260507152507 | 58 | 114 | 3.0 | 4.0 | 0.00 | 0.00 | 0.00 | 1 | 985.2 |
| 20260507152007 | 58 | 120 | 3.0 | 4.0 | 0.00 | 0.00 | 0.00 | 1 | 984.8 |
| 20260507151506 | 57 | 144 | 4.0 | 7.0 | 0.00 | 0.00 | 0.00 | 1 | 984.9 |
| 20260507151005 | 57 | 162 | 4.0 | 5.0 | 0.00 | 0.00 | 0.00 | 1 | 985.1 |
| 20260507150505 | 56 | 152 | 6.0 | 8.0 | 0.00 | 0.00 | 0.00 | 1 | 984.1 |
| 20260507150005 | 57 | 146 | 3.0 | 6.0 | 0.00 | 0.00 | 0.00 | 1 | 984.6 |
| 20260507145503 | 57 | 165 | 5.0 | 7.0 | 0.00 | 0.00 | 0.00 | 1 | 984.2 |
| 20260507145003 | 57 | 146 | 4.0 | 5.0 | 0.00 | 0.00 | 0.00 | 1 | 983.7 |
| 20260507144502 | 57 | 154 | 4.0 | 5.0 | 0.00 | 0.00 | 0.00 | 1 | 984.6 |
| 20260507144008 | 56 | 146 | 4.0 | 6.0 | 0.00 | 0.00 | 0.00 | 1 | 985.2 |
| 20260507143507 | 57 | 151 | 5.0 | 5.0 | 0.00 | 0.00 | 0.00 | 1 | 984.3 |
| 20260507143007 | 57 | 154 | 4.0 | 6.0 | 0.00 | 0.00 | 0.00 | 1 | 984.6 |
| 20260507142506 | 57 | 150 | 4.0 | 6.0 | 0.00 | 0.00 | 0.00 | 1 | 985.5 |
| 20260507142005 | 57 | 145 | 3.0 | 5.0 | 0.00 | 0.00 | 0.00 | 1 | 984.5 |
| 20260507141006 | 57 | 146 | 4.0 | 5.0 | 0.00 | 0.00 | 0.00 | 1 | 985.1 |
| 20260507140504 | 57 | 147 | 3.0 | 5.0 | 0.00 | 0.00 | 0.00 | 1 | 985.1 |
| 20260507135504 | 56 | 143 | 4.0 | 6.0 | 0.00 | 0.00 | 0.00 | 1 | 984.3 |
| 20260507135003 | 56 | 145 | 3.0 | 5.0 | 0.00 | 0.00 | 0.00 | 1 | 984.7 |
| 20260507134502 | 55 | 151 | 4.0 | 6.0 | 0.00 | 0.00 | 0.00 | 1 | 984.2 |
| 20260507134008 | 55 | 140 | 4.0 | 6.0 | 0.00 | 0.00 | 0.00 | 1 | 985.5 |
| 20260507133507 | 55 | 143 | 4.0 | 5.0 | 0.00 | 0.00 | 0.00 | 1 | 984.1 |
| 20260507133007 | 55 | 149 | 3.0 | 6.0 | 0.00 | 0.00 | 0.00 | 1 | 983.5 |
| 20260507132506 | 55 | 141 | 3.0 | 4.0 | 0.00 | 0.00 | 0.00 | 1 | 983.7 |
| 20260507132005 | 55 | 154 | 3.0 | 3.0 | 0.00 | 0.00 | 0.00 | 1 | 984.1 |
| 20260507131505 | 55 | 140 | 3.0 | 5.0 | 0.00 | 0.00 | 0.00 | 1 | 985.0 |
| 20260507131004 | 55 | 132 | 2.0 | 4.0 | 0.00 | 0.00 | 0.00 | 1 | 983.6 |
| 20260507130004 | 53 | 161 | 3.0 | 5.0 | 0.00 | 0.00 | 0.00 | 1 | 983.1 |
| 20260507125503 | 53 | 152 | 2.0 | 2.0 | 0.00 | 0.00 | 0.00 | 1 | 984.0 |
| 20260507125008 | 52 | 105 | 1.0 | 2.0 | 0.00 | 0.00 | 0.00 | 1 | 983.9 |
| 20260507124508 | 52 | 93 | 1.0 | 2.0 | 0.00 | 0.00 | 0.00 | 1 | 983.9 |
| 20260507124007 | 52 | 149 | 1.0 | 2.0 | 0.00 | 0.00 | 0.00 | 1 | 984.3 |
| 20260507123530 | 52 | 142 | 1.0 | 2.0 | 0.00 | 0.00 | 0.00 | 1 | 984.0 |
| 20260507122505 | 51 | 159 | 1.0 | 2.0 | 0.00 | 0.00 | 0.00 | 1 | 983.8 |
| 20260507121505 | 51 | 90 | 1.0 | 2.0 | 0.00 | 0.00 | 0.00 | 1 | 984.0 |
| 20260507121004 | 51 | 15 | 1.0 | 1.0 | 0.00 | 0.00 | 0.00 | 1 | 984.2 |
| 20260507120504 | 51 | 139 | 1.0 | 2.0 | 0.00 | 0.00 | 0.00 | 1 | 984.7 |
| 20260507120003 | 52 | 137 | 1.0 | 2.0 | 0.00 | 0.00 | 0.00 | 1 | 983.4 |
| 20260507115503 | 52 | 125 | 1.0 | 2.0 | 0.00 | 0.00 | 0.00 | 1 | 983.2 |
| 20260507115002 | 52 | 118 | 1.0 | 2.0 | 0.00 | 0.00 | 0.00 | 1 | 983.5 |
| 20260507114507 | 51 | 128 | 1.0 | 1.0 | 0.00 | 0.00 | 0.00 | 1 | 984.5 |
| 20260507114007 | 51 | 162 | 1.0 | 1.0 | 0.00 | 0.00 | 0.00 | 1 | 984.4 |
| 20260507113506 | 51 | 100 | 1.0 | 2.0 | 0.00 | 0.00 | 0.00 | 1 | 985.0 |
| 20260507113006 | 51 | 144 | 1.0 | 1.0 | 0.00 | 0.00 | 0.00 | 1 | 984.1 |
| 20260507112505 | 52 | 148 | 1.0 | 1.0 | 0.00 | 0.00 | 0.00 | 1 | 984.0 |
| 20260507112004 | 51 | 138 | 1.0 | 1.0 | 0.00 | 0.00 | 0.00 | 1 | 984.0 |
| 20260507111504 | 51 | 104 | 1.0 | 1.0 | 0.00 | 0.00 | 0.00 | 100 | 983.4 |
| 20260507111003 | 52 | 76 | 1.0 | 1.0 | 0.00 | 0.00 | 0.00 | 1 | 983.7 |
| 20260507110002 | 52 | 146 | 1.0 | 2.0 | 0.00 | 0.00 | 0.00 | 1 | 983.3 |
| 20260507105508 | 52 | 159 | 1.0 | 2.0 | 0.00 | 0.00 | 0.00 | 1 | 983.0 |
| 20260507105007 | 51 | 146 | 1.0 | 1.0 | 0.00 | 0.00 | 0.00 | 1 | 983.4 |
| 20260507104507 | 51 | 136 | 1.0 | 1.0 | 0.00 | 0.00 | 0.00 | 1 | 983.6 |
| 20260507104006 | 51 | 120 | 1.0 | 1.0 | 0.00 | 0.00 | 0.00 | 1 | 983.8 |
| 20260507103505 | 51 | 91 | 1.0 | 1.0 | 0.00 | 0.00 | 0.00 | 100 | 983.8 |
| 20260507103005 | 50 | 139 | 0.0 | 1.0 | 0.00 | 0.00 | 0.00 | 1 | 984.1 |
| 20260507102504 | 50 | 350 | 0.0 | 1.0 | 0.00 | 0.00 | 0.00 | 1 | 984.0 |
| 20260507102003 | 51 | 45 | 0.0 | 1.0 | 0.00 | 0.00 | 0.00 | 1 | 983.6 |
| 20260507101003 | 51 | 40 | 1.0 | 1.0 | 0.00 | 0.00 | 0.00 | 1 | 984.0 |
| 20260507100508 | 52 | 322 | 1.0 | 1.0 | 0.00 | 0.00 | 0.00 | 1 | 984.2 |
| 20260507100007 | 53 | 97 | 0.0 | 1.0 | 0.00 | 0.00 | 0.00 | 1 | 985.2 |
| 20260507095507 | 53 | 156 | 1.0 | 1.0 | 0.00 | 0.00 | 0.00 | 1 | 984.7 |
| 20260507095006 | 53 | 155 | 1.0 | 1.0 | 0.00 | 0.00 | 0.00 | 1 | 984.3 |
| 20260507094506 | 54 | 162 | 1.0 | 1.0 | 0.00 | 0.00 | 0.00 | 1 | 984.2 |
| 20260507094005 | 54 | 155 | 1.0 | 1.0 | 0.00 | 0.00 | 0.00 | 1 | 984.0 |
| 20260507093505 | 54 | 133 | 2.0 | 2.0 | 0.00 | 0.00 | 0.00 | 1 | 983.4 |
| 20260507093004 | 54 | 150 | 1.0 | 1.0 | 0.00 | 0.00 | 0.00 | 1 | 984.0 |
| 20260507092509 | 54 | 144 | 1.0 | 1.0 | 0.00 | 0.00 | 0.00 | 1 | 983.6 |
| 20260507092008 | 54 | 140 | 1.0 | 1.0 | 0.00 | 0.00 | 0.00 | 1 | 984.2 |
| 20260507091508 | 55 | 143 | 1.0 | 2.0 | 0.00 | 0.00 | 0.00 | 1 | 984.9 |
| 20260507091007 | 55 | 147 | 2.0 | 3.0 | 0.00 | 0.00 | 0.00 | 1 | 984.1 |
| 20260507090507 | 54 | 153 | 2.0 | 2.0 | 0.00 | 0.00 | 0.00 | 1 | 984.5 |
| 20260507090006 | 54 | 147 | 2.0 | 2.0 | 0.00 | 0.00 | 0.00 | 1 | 985.2 |
| 20260507085506 | 54 | 157 | 2.0 | 2.0 | 0.00 | 0.00 | 0.00 | 1 | 985.4 |
| 20260507085005 | 53 | 151 | 2.0 | 3.0 | 0.00 | 0.00 | 0.00 | 1 | 985.0 |
| 20260507084504 | 53 | 158 | 2.0 | 3.0 | 0.00 | 0.00 | 0.00 | 1 | 985.4 |
| 20260507084003 | 53 | 154 | 3.0 | 4.0 | 0.00 | 0.00 | 0.00 | 1 | 985.0 |
| 20260507083009 | 54 | 154 | 4.0 | 4.0 | 0.00 | 0.00 | 0.00 | 1 | 985.1 |
| 20260507082508 | 54 | 155 | 3.0 | 4.0 | 0.00 | 0.00 | 0.00 | 1 | 986.0 |
| 20260507082007 | 54 | 162 | 2.0 | 3.0 | 0.00 | 0.00 | 0.00 | 1 | 985.1 |
| 20260507081507 | 54 | 154 | 2.0 | 3.0 | 0.00 | 0.00 | 0.00 | 1 | 985.3 |
| 20260507080506 | 53 | 165 | 2.0 | 3.0 | 0.00 | 0.00 | 0.00 | 1 | 985.0 |
| 20260507080006 | 53 | 154 | 4.0 | 4.0 | 0.00 | 0.00 | 0.00 | 1 | 985.4 |
| 20260507075505 | 53 | 160 | 4.0 | 4.0 | 0.00 | 0.00 | 0.00 | 1 | 986.0 |
| 20260507075004 | 53 | 155 | 4.0 | 4.0 | 0.00 | 0.00 | 0.00 | 1 | 985.2 |
| 20260507074504 | 53 | 165 | 4.0 | 4.0 | 0.00 | 0.00 | 0.00 | 1 | 985.2 |
| 20260507074009 | 53 | 168 | 4.0 | 5.0 | 0.00 | 0.00 | 0.00 | 1 | 984.8 |
| 20260507073509 | 53 | 169 | 4.0 | 5.0 | 0.00 | 0.00 | 0.00 | 1 | 985.6 |
| 20260507072508 | 53 | 175 | 5.0 | 6.0 | 0.00 | 0.00 | 0.00 | 1 | 985.0 |
| 20260507072007 | 54 | 161 | 3.0 | 4.0 | 0.00 | 0.00 | 0.00 | 1 | 984.8 |
| 20260507071507 | 54 | 170 | 4.0 | 5.0 | 0.00 | 0.00 | 0.00 | 1 | 985.3 |
| 20260507071006 | 53 | 170 | 5.0 | 5.0 | 0.00 | 0.00 | 0.00 | 1 | 984.6 |
| 20260507070505 | 53 | 136 | 4.0 | 4.0 | 0.00 | 0.00 | 0.00 | 1 | 985.4 |
| 20260507070013 | 53 | 166 | 4.0 | 4.0 | 0.00 | 0.00 | 0.00 | 1 | 985.7 |
| 20260507065508 | 53 | 161 | 4.0 | 5.0 | 0.00 | 0.00 | 0.00 | 1 | 985.5 |
| 20260507065007 | 53 | 161 | 4.0 | 5.0 | 0.00 | 0.00 | 0.00 | 1 | 985.3 |
| 20260507064507 | 54 | 157 | 4.0 | 4.0 | 0.00 | 0.00 | 0.00 | 1 | 985.4 |
| 20260507064006 | 54 | 157 | 4.0 | 4.0 | 0.00 | 0.00 | 0.00 | 1 | 984.6 |
| 20260507063005 | 53 | 154 | 4.0 | 4.0 | 0.00 | 0.00 | 0.00 | 1 | 984.5 |
| 20260507062505 | 53 | 158 | 4.0 | 4.0 | 0.00 | 0.00 | 0.00 | 1 | 984.7 |
| 20260507061504 | 53 | 162 | 4.0 | 4.0 | 0.00 | 0.00 | 0.00 | 1 | 985.2 |
| 20260507061009 | 53 | 161 | 4.0 | 4.0 | 0.00 | 0.00 | 0.00 | 1 | 986.3 |
| 20260507060509 | 53 | 168 | 3.0 | 4.0 | 0.00 | 0.00 | 0.00 | 1 | 985.8 |
| 20260507060008 | 53 | 162 | 4.0 | 5.0 | 0.00 | 0.00 | 0.00 | 1 | 985.8 |
| 20260507055507 | 52 | 162 | 4.0 | 4.0 | 0.00 | 0.00 | 0.00 | 1 | 986.0 |
| 20260507055007 | 52 | 157 | 4.0 | 4.0 | 0.00 | 0.00 | 0.00 | 1 | 985.7 |
| 20260507054506 | 52 | 155 | 4.0 | 4.0 | 0.00 | 0.00 | 0.00 | 1 | 985.5 |
| 20260507054005 | 52 | 161 | 4.0 | 4.0 | 0.00 | 0.00 | 0.00 | 1 | 985.7 |
| 20260507053505 | 52 | 154 | 4.0 | 4.0 | 0.00 | 0.00 | 0.00 | 1 | 985.5 |
| 20260507053004 | 52 | 159 | 4.0 | 5.0 | 0.00 | 0.00 | 0.00 | 1 | 986.3 |
| 20260507052003 | 51 | 173 | 6.0 | 6.0 | 0.00 | 0.00 | 0.00 | 2 | 985.2 |
| 20260507051509 | 51 | 165 | 6.0 | 6.0 | 0.00 | 0.00 | 0.00 | 2 | 985.1 |
| 20260507051008 | 50 | 167 | 6.0 | 6.0 | 0.00 | 0.00 | 0.00 | 2 | 986.1 |
| 20260507050507 | 50 | 174 | 8.0 | 8.0 | 0.00 | 0.00 | 0.00 | 2 | 984.5 |
| 20260507050007 | 50 | 170 | 7.0 | 8.0 | 0.00 | 0.00 | 0.00 | 3 | 984.5 |
| 20260507045006 | 49 | 173 | 8.0 | 9.0 | 0.00 | 0.00 | 0.00 | 4 | 985.0 |
| 20260507044505 | 49 | 175 | 9.0 | 9.0 | 0.00 | 0.00 | 0.00 | 5 | 984.6 |
| 20260507044004 | 49 | 174 | 9.0 | 10.0 | 0.00 | 0.00 | 0.00 | 5 | 984.5 |
| 20260507043504 | 49 | 164 | 8.0 | 10.0 | 0.00 | 0.00 | 0.00 | 5 | 984.9 |
| 20260507043009 | 49 | 173 | 10.0 | 11.0 | 0.00 | 0.00 | 0.00 | 5 | 984.2 |
| 20260507042508 | 49 | 172 | 10.0 | 11.0 | 0.00 | 0.00 | 0.00 | 5 | 983.8 |
| 20260507042007 | 49 | 164 | 7.0 | 8.0 | 0.00 | 0.00 | 0.00 | 4 | 984.4 |
| 20260507041507 | 49 | 166 | 7.0 | 8.0 | 0.00 | 0.00 | 0.00 | 3 | 984.6 |
| 20260507041006 | 49 | 158 | 7.0 | 7.0 | 0.00 | 0.00 | 0.00 | 2 | 984.8 |
| 20260507040506 | 49 | 173 | 6.0 | 6.0 | 0.00 | 0.00 | 0.00 | 2 | 984.3 |
| 20260507040005 | 49 | 168 | 8.0 | 8.0 | 0.00 | 0.00 | 0.00 | 2 | 984.5 |
| 20260507035504 | 49 | 156 | 6.0 | 6.0 | 0.00 | 0.00 | 0.00 | 3 | 984.8 |
| 20260507035004 | 49 | 156 | 6.0 | 6.0 | 0.00 | 0.00 | 0.00 | 3 | 984.8 |
| 20260507034509 | 49 | 160 | 7.0 | 11.0 | 0.00 | 0.00 | 0.00 | 2 | 984.6 |
| 20260507034009 | 49 | 155 | 6.0 | 6.0 | 0.00 | 0.00 | 0.00 | 2 | 984.8 |
| 20260507033508 | 49 | 155 | 6.0 | 6.0 | 0.00 | 0.00 | 0.00 | 2 | 984.8 |
| 20260507033032 | 49 | 158 | 7.0 | 8.0 | 0.00 | 0.00 | 0.00 | 2 | 984.7 |
| 20260507032507 | 49 | 158 | 6.0 | 6.0 | 0.00 | 0.00 | 0.00 | 2 | 983.8 |
| 20260507032006 | 49 | 149 | 7.0 | 7.0 | 0.00 | 0.00 | 0.00 | 2 | 983.8 |
| 20260507031505 | 50 | 151 | 6.0 | 7.0 | 0.00 | 0.00 | 0.00 | 2 | 983.0 |
| 20260507031004 | 50 | 140 | 4.0 | 5.0 | 0.00 | 0.00 | 0.00 | 3 | 984.1 |
| 20260507030504 | 50 | 135 | 4.0 | 4.0 | 0.00 | 0.00 | 0.00 | 3 | 983.7 |
| 20260507030009 | 50 | 147 | 4.0 | 5.0 | 0.00 | 0.00 | 0.00 | 1 | 982.7 |
| 20260507025508 | 50 | 149 | 6.0 | 8.0 | 0.00 | 0.00 | 0.00 | 2 | 983.5 |
| 20260507025008 | 50 | 147 | 5.0 | 6.0 | 0.00 | 0.00 | 0.00 | 3 | 983.2 |
| 20260507024507 | 51 | 146 | 5.0 | 7.0 | 0.00 | 0.00 | 0.00 | 3 | 983.7 |
| 20260507024007 | 52 | 129 | 3.0 | 5.0 | 0.00 | 0.00 | 0.00 | 2 | 982.9 |
| 20260507023506 | 52 | 142 | 2.0 | 4.0 | 0.00 | 0.00 | 0.00 | 3 | 983.2 |
| 20260507022008 | 53 | 151 | 3.0 | 4.0 | 0.00 | 0.00 | 0.00 | 2 | 983.2 |
| 20260507021507 | 54 | 149 | 3.0 | 4.0 | 0.00 | 0.00 | 0.00 | 1 | 983.0 |
| 20260507021007 | 55 | 145 | 3.0 | 4.0 | 0.00 | 0.00 | 0.00 | 100 | 983.6 |
| 20260507020006 | 58 | 145 | 2.0 | 3.0 | 0.00 | 0.00 | 0.00 | 1 | 983.4 |
| 20260507015506 | 59 | 135 | 2.0 | 2.0 | 0.00 | 0.00 | 0.00 | 1 | 983.9 |
| 20260507015005 | 60 | 106 | 1.0 | 2.0 | 0.00 | 0.00 | 0.00 | 1 | 983.9 |